This is the latest recevied weather packets stored in our database for station/object DB0TGO-14. If no packets are shown the sender has not sent any weather packets the latest 10 day(s).
| Time | Temp. | Humidity | Pressure | Rain* | Wind** | Luminosity | Snow |
|---|---|---|---|---|---|---|---|
| 1777629024 | 21.11° C | 36% | 1030.2 hPa | 0 mm | - | - | - |
| 1777628915 | 21.67° C | 35% | 1030.1 hPa | 0 mm | - | - | - |
| 1777628810 | 21.67° C | 35% | 1030.2 hPa | 0 mm | - | - | - |
| 1777628705 | 22.22° C | 35% | 1030.2 hPa | 0 mm | - | - | - |
| 1777628590 | 22.22° C | 33% | 1030.2 hPa | 0 mm | - | - | - |
| 1777628482 | 22.22° C | 33% | 1030.2 hPa | 0 mm | - | - | - |
| 1777628475 | 22.22° C | 33% | 1030.2 hPa | 0 mm | - | - | - |
| 1777628360 | 22.22° C | 35% | 1030.2 hPa | 0 mm | - | - | - |
| 1777628252 | 22.78° C | 34% | 1030.3 hPa | 0 mm | - | - | - |
| 1777628139 | 22.78° C | 34% | 1030.2 hPa | 0 mm | - | - | - |
| 1777628025 | 22.78° C | 32% | 1030.2 hPa | 0 mm | - | - | - |
| 1777627905 | 22.22° C | 32% | 1030.3 hPa | 0 mm | - | - | - |
| 1777627786 | 22.22° C | 33% | 1030.3 hPa | 0 mm | - | - | - |
| 1777627690 | 22.22° C | 32% | 1030.3 hPa | 0 mm | - | - | - |
| 1777627590 | 22.22° C | 32% | 1030.4 hPa | 0 mm | - | - | - |
| 1777627522 | 22.22° C | 32% | 1030.3 hPa | 0 mm | - | - | - |
| 1777627473 | 22.22° C | 32% | 1030.3 hPa | 0 mm | - | - | - |
| 1777627365 | 22.22° C | 33% | 1030.4 hPa | 0 mm | - | - | - |
| 1777627242 | 22.22° C | 33% | 1030.4 hPa | 0 mm | - | - | - |
| 1777627140 | 22.22° C | 35% | 1030.4 hPa | 0 mm | - | - | - |
| 1777627035 | 22.22° C | 32% | 1030.3 hPa | 0 mm | - | - | - |
| 1777626916 | 21.67° C | 32% | 1030.5 hPa | 0 mm | - | - | - |
| 1777626819 | 21.11° C | 32% | 1030.4 hPa | 0 mm | - | - | - |
| 1777626715 | 21.11° C | 31% | 1030.4 hPa | 0 mm | - | - | - |
| 1777626605 | 20.56° C | 30% | 1030.5 hPa | 0 mm | - | - | - |
* Rain latest hour (hover to see other rain measurements)
** Current wind speed in m/s (hover to see current wind gust speed)